Location: Unspecified
(51.5147°N, 7.4673°E)
Time: 06:54:07
(UTC+01:00)

A-11 Canister half - Pass Details

Date: 17 February 2026
Orbit: 1524 x 1683 km, 47.3° (Epoch: 14 March)

Event Time Altitude Azimuth Distance (km) Brightness Sun altitude
Rises 18:25:24 0° 244° (WSW) 4,703 13.4 -6.3°
Reaches altitude 10° 18:28:30 10° 241° (WSW) 3,708 12.4 -6.8°
Maximum altitude 18:37:36 61° 164° (SSE) 1,694 9.2 -8.2°
Enters shadow 18:46:26 11° 87° (E) 3,619 10.3 -9.6°
